Burlington, IA

8:47 AM CST on February 23, 2017 (GMT -0600)
Burlington Regional

Weather History for KBRL - August, 2013

Change the Weather History Date:

Monday, August 26, 2013

  Actual Average Record
Temperature  
Mean Temperature 81 °F 74 °F  
Max Temperature 94 °F 84 °F 99 °F (2003)
Min Temperature 67 °F 64 °F 46 °F (1910)
Degree Days  
Heating Degree Days 0 0  
Month to date heating degree days 3 0  
Since 1 June heating degree days 26 14  
Since 1 July heating degree days 11 1  
Cooling Degree Days 16 9  
Month to date cooling degree days 199 271  
Year to date cooling degree days 803 1000  
Since 1 June cooling degree days 704 897  
Growing Degree Days 30 (Base 50)    
Moisture  
Dew Point 69 °F    
Average Humidity 68    
Maximum Humidity 87    
Minimum Humidity 49    
Precipitation  
Precipitation 0.00 in 0.14 in 1.81 in (1954)
Month to date precipitation T 3.55  
Year to date precipitation 27.06 26.53  
Sea Level Pressure  
Sea Level Pressure 30.09 in    
Wind  
Wind Speed 6 mph (SSW)    
Max Wind Speed 14 mph    
Max Gust Speed 17 mph    
Visibility 9 miles    
Events      
T = Trace of Precipitation, MM = Missing Value Source: NWS Daily Summary

Daily Weather History Graph

Daily Weather History Graph

Search for Another Location

Airport or City:

Trip Planner

Search our weather history database for the weather conditions in past years. The results will help you decide how hot, cold, wet, or windy it might be!

Date:

Astronomy

Aug. 26, 2013 Rise Set
Actual Time 6:25 AM CDT 7:45 PM CDT
Civil Twilight 5:57 AM CDT 8:14 PM CDT
Nautical Twilight 5:23 AM CDT 8:48 PM CDT
Astronomical Twilight 4:46 AM CDT 9:24 PM CDT
Moon 10:54 PM CDT (8/26) 12:30 PM CDT (8/26)
Length of Visible Light 14h 17m
Length of Day
13h 20m
Waning Gibbous, 66% of the Moon is Illuminated
Aug 26
Waning Gibbous
Aug 28
Last Quarter
Sep 5
New
Sep 12
First Quarter
Sep 19
Full

Hourly Weather History & Observations

Time (CDT) Temp. Heat Index Dew Point Humidity Pressure Visibility Wind Dir Wind Speed Gust Speed Precip Events Conditions
12:53 AM 73.9 °F - 64.9 °F 73% 30.14 in 10.0 mi SSW 9.2 mph - N/A   Clear
1:53 AM 70.0 °F - 64.9 °F 84% 30.13 in 10.0 mi SSW 6.9 mph - N/A   Clear
2:53 AM 70.0 °F - 64.9 °F 84% 30.13 in 10.0 mi South 5.8 mph - N/A   Clear
3:53 AM 68.0 °F - 64.9 °F 90% 30.14 in 10.0 mi South 3.5 mph - N/A   Clear
4:53 AM 68.0 °F - 64.0 °F 87% 30.14 in 8.0 mi SSW 3.5 mph - N/A   Clear
5:53 AM 68.0 °F - 64.9 °F 90% 30.14 in 9.0 mi South 3.5 mph - N/A   Clear
6:53 AM 68.0 °F - 64.9 °F 90% 30.15 in 5.0 mi South 4.6 mph - N/A   Clear
7:53 AM 72.0 °F - 66.0 °F 81% 30.16 in 7.0 mi SSW 3.5 mph - N/A   Clear
8:53 AM 75.9 °F - 68.0 °F 76% 30.16 in 6.0 mi SSW 5.8 mph - N/A   Haze
9:53 AM 81.0 °F 84.4 °F 70.0 °F 69% 30.15 in 7.0 mi SW 6.9 mph - N/A   Clear
10:53 AM 86.0 °F 91.5 °F 71.1 °F 61% 30.14 in 7.0 mi SW 4.6 mph - N/A   Clear
11:53 AM 89.1 °F 96.0 °F 72.0 °F 57% 30.12 in 10.0 mi SW 9.2 mph - N/A   Clear
12:53 PM 91.9 °F 97.4 °F 70.0 °F 48% 30.10 in 9.0 mi Variable 6.9 mph - N/A   Partly Cloudy
1:53 PM 91.0 °F 97.6 °F 71.1 °F 52% 30.08 in 8.0 mi South 8.1 mph - N/A   Mostly Cloudy
2:53 PM 93.9 °F 100.8 °F 71.1 °F 47% 30.06 in 9.0 mi South 12.7 mph - N/A   Scattered Clouds
3:53 PM 91.9 °F 96.9 °F 69.1 °F 47% 30.05 in 8.0 mi SSW 6.9 mph - N/A   Partly Cloudy
4:53 PM 91.9 °F 97.4 °F 70.0 °F 48% 30.03 in 10.0 mi South 6.9 mph - N/A   Clear
5:53 PM 91.0 °F 98.2 °F 72.0 °F 53% 30.02 in 9.0 mi South 8.1 mph - N/A   Partly Cloudy
6:53 PM 88.0 °F 95.6 °F 73.0 °F 61% 30.01 in 9.0 mi SSW 5.8 mph - N/A   Partly Cloudy
7:53 PM 84.0 °F 89.6 °F 72.0 °F 67% 30.00 in 10.0 mi SSW 6.9 mph - N/A   Clear
8:53 PM 81.0 °F 84.9 °F 71.1 °F 72% 30.00 in 9.0 mi SSW 5.8 mph - N/A   Clear
9:53 PM 78.1 °F - 71.1 °F 79% 30.00 in 10.0 mi SSW 5.8 mph - N/A   Clear
10:53 PM 77.0 °F - 70.0 °F 79% 30.01 in 10.0 mi SSW 6.9 mph - N/A   Clear
11:53 PM 77.0 °F - 69.1 °F 76% 30.01 in 10.0 mi SSW 5.8 mph - N/A   Clear